Regional Weather Roundup
Issued by NWS

Home | Current Version | Previous Version | Text Only | Print | Product List | Glossary On
Versions: 1 2 3 4 5 6 7 8 9 10 11 12 13 14 15 16 17 18 19 20 21 22 23 24
337
ASUS42 KTBW 221216
RWRFL
FLORIDA REGIONAL WEATHER ROUNDUP
NATIONAL WEATHER SERVICE TAMPA BAY RUSKIN FL
800 AM EDT FRI MAY 22 2015

NOTE: "FAIR" INDICATES FEW OR NO CLOUDS BELOW 12,000 FEET WITH NO
SIGNIFICANT WEATHER AND/OR OBSTRUCTIONS TO VISIBILITY.


FLZ001>010-012>015-112-114-115-221300-
PANHANDLE FLORIDA

CITY           SKY/WX    TMP DP  RH WIND       PRES   REMARKS
PENSACOLA      MOSUNNY   63  56  78 N10       30.15R
PENSACOLA NAS  PTSUNNY   65  60  84 N9        30.14R
MILTON NAS     PTSUNNY   60  54  80 N12       30.16R
CRESTVIEW      MOSUNNY   62  54  74 NE12      30.17R
DUKE FIELD     FAIR      63  54  72 N14       30.14R HAZE
VALPARAISO     PTSUNNY   65  56  74 N16       30.13R
MARY ESTHER    PTSUNNY   64  58  80 N10G23    30.12R
TRI COUNTY     FAIR      63  54  72 N10       30.16R
PANAMA CITY    FAIR      67  60  78 N12       30.12R
TYNDALL AFB    MOSUNNY   69  63  81 N7        30.10R
APALACHICOLA   MOSUNNY   75  65  70 N9        30.10R

STATION/POSITION SKY/WX   TEMP    WIND        PRES    WAVE   SWELL
                          AIR SEA DIR/SP/G            HT/PER HT/PER
                          (F)     (DEG/KT/KT) (MB)    (FT/S) (FT/S)
30.1N   87.6W              69 80   20/ 14/ 17 1019.7R   2/ 3
29.2N   88.2W              77 81   60/ 17/ 21 1019.3R   3/ 4
28.8N   86.0W              79 81   60/ 10/ 12 1018.6R   2/ 4
PANAMA CITY BEAC           68 78   10/  9/ 14 1018.8R
CAPE SAN BLAS    NOT AVBL
TOWER C                    73      20/ 13/ 15 1018.9R
28.5N   84.5W              80 80   40/ 12/ 14 1017.9R   1/ 4

$$
FLZ011-016>038-118-127-128-134-139-239-221300-
NORTH FLORIDA

CITY           SKY/WX    TMP DP  RH WIND       PRES   REMARKS
MARIANNA       LGT RAIN  63  56  78 N9        30.13R
TALLAHASSEE    MOSUNNY   69  60  73 N10       30.10R
PERRY          SUNNY     70  64  81 N6        30.10R
CROSS CITY       N/A     71  66  84 N3        30.08R
LAKE CITY      FAIR      68  63  83 N8        30.09R
GAINESVILLE    SUNNY     72  64  76 N7        30.07R
MAYPORT NAS    MOSUNNY   72  63  73 N6        30.06R
JACKSONVILLE   MOSUNNY   70  63  78 NW9       30.07R
JAX NAS        MOSUNNY   76  62  62 N15       30.08R
JAX CRAIG      SUNNY     73  62  68 N9        30.07R
JAX CECIL      SUNNY     70  63  78 N10       30.08R
FERNANDINA BEA FAIR      75  64  69 N9        30.05S
ST AUGUSTINE   SUNNY     73  65  75 N8        30.07R

STATION/POSITION SKY/WX   TEMP    WIND        PRES    WAVE   SWELL
                          AIR SEA DIR/SP/G            HT/PER HT/PER
                          (F)     (DEG/KT/KT) (MB)    (FT/S) (FT/S)
SHELL POINT                69     350/  5/  7   N/A
KEATON BEACH               70      10/  7/ 11 1018.9R
CEDAR KEY                  74      20/  5/  8 1018.9R
FERNANDINA                 70 81  330/  5/  8 1017.1R
30.7N   81.3W                 77                N/A     2/ 3
MAYPORT                    70 78  330/  6/  8 1017.6R
31.4N   80.9W              72 77  350/ 14/ 16 1018.0R   2/ 4
ST AUGUSTINE               73 72  360/  8/  9 1018.9R

$$
FLZ040-043>046-052-053-057-058-063-144-221300-
INTERIOR CENTRAL FLORIDA

CITY           SKY/WX    TMP DP  RH WIND       PRES   REMARKS
OCALA          SUNNY     73  66  78 CALM      30.08R
THE VILLAGES     N/A     75  72  88 N3        29.98R
LEESBURG       SUNNY     77  66  68 N8        30.08R
SANFORD        PTSUNNY   78  68  71 N9        30.06R
ORLANDO EXEC   SUNNY     78  70  76 N9        30.07R
ORLANDO INTL   MOSUNNY   79  73  82 N8        30.07R
WINTER HAVEN   SUNNY     80  72  76 N6        30.08R
LAKELAND       MOSUNNY   75  73  94 CALM      30.08R
BARTOW         MOSUNNY   73 N/A N/A CALM      30.07S HAZE
OKEECHOBEE     SUNNY     73  72  94 NW5       30.06R

$$
FLZ041-047-054-059-064-141-147-221300-
EAST CENTRAL FLORIDA

CITY           SKY/WX    TMP DP  RH WIND       PRES   REMARKS
ORMOND BEACH   SUNNY     73  68  83 CALM      30.06
DAYTONA BEACH  MOSUNNY   76  67  73 N6        30.07R
DELAND           N/A     75  68  78 N5        30.08R
NEW SMYRNA BEA SUNNY     79  68  69 N9        30.07R
JFK SPACE CTR  MOSUNNY   76  74  91 N6        30.04R
TITUSVILLE     SUNNY     73  73 100 VRB3      30.06R HAZE
CAPE CANAVERAL SUNNY     78  75  89 NW8       30.04R
PATRICK AFB    SUNNY     78  75  90 W8        30.04R
MELBOURNE      SUNNY     77  73  87 W7        30.05R
VERO BEACH     SUNNY     79  72  79 W8        30.05R
FT PIERCE      SUNNY     77  73  87 NW6       30.05R
STUART         SUNNY     77  72  83 CALM      30.06R

STATION/POSITION SKY/WX   TEMP    WIND        PRES    WAVE   SWELL
                          AIR SEA DIR/SP/G            HT/PER HT/PER
                          (F)     (DEG/KT/KT) (MB)    (FT/S) (FT/S)
28.5N   80.2W              78 79  310/ 10/ 12 1017.2R
28.9N   78.5W              80 79  230/  8/ 10 1017.0R
TRIDENT PIER               77 83  260/  4/  5 1017.5R
28.4N   80.5W                 81                N/A     1/ 8
27.5N   80.2W                 80                N/A     1/ 8

$$
FLZ050-056-061-142-242-148-248-149-249-151-251-155-255-
160-260-221300-
WEST CENTRAL FLORIDA

CITY           SKY/WX    TMP DP  RH WIND       PRES   REMARKS
CRYSTAL RIVER  FAIR      73  66  78 NE3       30.07R
INVERNESS      FAIR      75  70  83 N5        30.08R
BROOKSVILLE    SUNNY     77  68  73 NE3       30.08R
CLEARWATER     SUNNY     80  73  79 N9        30.06R
TAMPA INTL     MOSUNNY   81  73  76 N7        30.06R
TAMPA EXEC     MOSUNNY   79  73  83 CALM      30.07R
PLANT CITY     MOSUNNY   77  77 100 CALM      30.09R
MACDILL AFB    PTSUNNY   82  77  84 N3        30.06R
PETER O KNIGHT SUNNY     82  75  78 CALM      30.07R
ST PETERSBURG  MOSUNNY   80  74  81 CALM      30.05R
SARASOTA       MOSUNNY   80  74  81 CALM      30.05R
VENICE         FAIR      81  75  83 N3        30.08R

STATION/POSITION SKY/WX   TEMP    WIND        PRES    WAVE   SWELL
                          AIR SEA DIR/SP/G            HT/PER HT/PER
                          (F)     (DEG/KT/KT) (MB)    (FT/S) (FT/S)
CEDAR KEY                  74      20/  5/  8 1018.9R
28.5N   84.5W              80 80   40/ 12/ 14 1017.9R   1/ 4
27.3N   84.2W                 81                N/A     1/ 3
CLEARWATER BEACH           81 84  330/ 12/ 13 1017.4R
MIDDLE TAMPA BAY           80     320/  4/  6 1017.8R
VENICE                     81 84   10/  4/  5 1017.8R

$$
FLZ066-069-070-075>078-162-262-165-265-221300-
SOUTHWEST FLORIDA AND KEYS

CITY           SKY/WX    TMP DP  RH WIND       PRES   REMARKS
PUNTA GORDA    SUNNY     75  73  93 CALM      30.08R
FT MYERS       SUNNY     80  74  81 CALM      30.05R
SOUTHWEST INTL SUNNY     76  73  91 CALM      30.06R
NAPLES         SUNNY     80  74  81 N3        30.07R
MARCO ISLAND   SUNNY     77  72  83 NE3       30.07R
IMMOKALEE      SUNNY    N/A N/A N/A CALM      30.07R
MARATHON       MOSUNNY   84  73  69 N6        30.06R
KEY WEST NAS   MOSUNNY   82  72  71 N7        30.07R
KEY WEST INTL  SUNNY     82  73  74 N6        30.07R

STATION/POSITION SKY/WX   TEMP    WIND        PRES    WAVE   SWELL
                          AIR SEA DIR/SP/G            HT/PER HT/PER
                          (F)     (DEG/KT/KT) (MB)    (FT/S) (FT/S)
VENICE                     81 84   10/  4/  5 1017.8R
NAPLES                     79 84   30/  4/  5 1017.5R
26.0N   85.6W              81 83   CALM  /  2 1018.1R   1/ 8
DRY TORTUGAS               80      30/  6/  7 1017.6R
NW FL BAY                  82      60/  6/  7 1017.9
SAND KEY                   81      20/  7/  9 1018.0R
SOMBRERO KEY               84      CALM  /  1 1018.6R
LONG KEY                   82 86   30/  2/  2 1018.8R
MOLASSES REEF              80 82   10/  4/  4 1018.1R

$$
FLZ067-068-071>074-168-172>174-221300-
SOUTHEAST FLORIDA

CITY           SKY/WX    TMP DP  RH WIND       PRES   REMARKS
W PALM BEACH   MOSUNNY   78  72  81 CALM      30.07R
FT LAUDER-EXEC SUNNY     77  73  87 W5        30.06R
FT LAUDERDALE  MOSUNNY   79  73  82 W5        30.06R
POMPANO BEACH  SUNNY     78  72  81 W5        30.06R HAZE
PEMBROKE PINES SUNNY     77  73  87 NW5       30.08R
OPA LOCKA      SUNNY     78  73  84 NW8       30.07R HAZE
MIAMI          MOSUNNY   79  72  79 NW6       30.07R
WEST KENDALL   SUNNY     76  73  91 NW3       30.07R
HOMESTEAD      SUNNY     77  72  85 W3        30.06R

STATION/POSITION SKY/WX   TEMP    WIND        PRES    WAVE   SWELL
                          AIR SEA DIR/SP/G            HT/PER HT/PER
                          (F)     (DEG/KT/KT) (MB)    (FT/S) (FT/S)
PORT EVERGLADES            78     270/  6/  7 1017.9R
VIRGINIA KEY               79 84  280/  3/  5 1017.3R
LAKE WORTH                 77 82  230/  3/  4 1017.1R
SETTLEMENT POINT           81     210/ 10/ 11 1018.6R

$$




USA.gov is the U.S. government's official web portal to all federal, state and local government web resources and services.